GW7187 Weather Reports


Display with metric or nautical units.
time (UTC)temp
F
wind
direction
speed
MPH
gust
MPH
rain 1hr
in
rain 24hr
in
rain mn
in
humidity
%
barometer
mb
20260507071248 63 221 5.0 5.0 0.00 0.00 0.00 64 1020.0
20260507070748 63 176 6.0 7.0 0.00 0.00 0.00 64 1020.3
20260507070247 63 286 4.0 4.0 0.00 0.00 0.00 64 1020.3
20260507065748 63 126 3.0 4.0 0.00 0.00 0.00 61 1020.3
20260507065247 63 185 3.0 4.0 0.00 0.00 0.00 64 1020.3
20260507064747 62 84 0.0 0.0 0.00 0.00 0.00 65 1020.3
20260507064247 61 221 5.0 5.0 0.00 0.00 0.00 67 1020.7
20260507063747 61 217 5.0 6.0 0.00 0.00 0.00 67 1020.7
20260507063247 60 176 2.0 2.0 0.00 0.00 0.00 67 1020.3
20260507062747 60 147 2.0 2.0 0.00 0.00 0.00 70 1020.7
20260507062248 60 198 5.0 6.0 0.00 0.00 0.00 69 1020.3
20260507061748 60 180 3.0 3.0 0.00 0.00 0.00 70 1020.7
20260507061249 60 156 5.0 5.0 0.00 0.00 0.00 70 1020.7
20260507060748 60 167 3.0 3.0 0.00 0.00 0.00 72 1020.7
20260507060247 60 222 2.0 2.0 0.00 0.00 0.00 70 1020.7
20260507055748 59 146 3.0 3.0 0.00 0.00 0.00 70 1020.7
20260507055247 58 144 3.0 3.0 0.00 0.00 0.00 70 1020.3
20260507054747 58 186 3.0 3.0 0.00 0.00 0.00 70 1020.3
20260507054249 58 277 2.0 2.0 0.00 0.00 0.00 71 1020.7
20260507053747 58 155 3.0 3.0 0.00 0.00 0.00 73 1020.3
20260507053248 58 165 2.0 2.0 0.00 0.00 0.00 74 1020.7
20260507052747 57 138 2.0 2.0 0.00 0.00 0.00 75 1020.3
20260507052247 58 210 6.0 7.0 0.00 0.00 0.00 74 1020.3
20260507051747 58 282 2.0 2.0 0.00 0.00 0.00 72 1020.3
20260507051247 58 136 0.0 0.0 0.00 0.00 0.00 71 1020.3
20260507050747 59 182 0.0 0.0 0.00 0.00 0.00 70 1020.3
20260507050248 59 162 0.0 0.0 0.00 0.00 0.00 69 1020.0
20260507045748 58 126 0.0 0.0 0.00 0.00 0.00 71 1020.0
20260507045247 58 162 1.0 1.0 0.00 0.00 0.00 70 1020.0
20260507044748 57 91 0.0 0.0 0.00 0.00 0.00 70 1020.3
20260507044248 57 171 0.0 0.0 0.00 0.00 0.00 74 1020.0
20260507043749 57 102 0.0 0.0 0.00 0.00 0.00 74 1020.0
20260507043248 55 142 1.0 1.0 0.00 0.00 0.00 74 1020.0
20260507042748 55 138 0.0 0.0 0.00 0.00 0.00 76 1020.0
20260507042247 54 192 0.0 0.0 0.00 0.00 0.00 77 1020.0
20260507041751 55 144 0.0 0.0 0.00 0.00 0.00 75 1020.0
20260507041249 54 126 0.0 0.0 0.00 0.00 0.00 78 1020.0
20260507040747 54 78 0.0 0.0 0.00 0.00 0.00 79 1020.0
20260507040249 54 159 0.0 0.0 0.00 0.00 0.00 80 1020.0
20260507035748 53 108 0.0 0.0 0.00 0.00 0.00 81 1019.6
20260507035248 53 150 1.0 1.0 0.00 0.00 0.00 82 1020.0
20260507034748 53 90 0.0 0.0 0.00 0.00 0.00 81 1019.6
20260507034247 53 36 0.0 0.0 0.00 0.00 0.00 81 1019.6
20260507033747 52 6 0.0 0.0 0.00 0.00 0.00 82 1019.6
20260507033247 51 197 0.0 0.0 0.00 0.00 0.00 85 1019.6
20260507032749 51 203 0.0 0.0 0.00 0.00 0.00 86 1019.3
20260507032248 51 270 0.0 0.0 0.00 0.00 0.00 86 1019.3
20260507031747 51 246 0.0 0.0 0.00 0.00 0.00 85 1019.6
20260507031249 51 272 0.0 0.0 0.00 0.00 0.00 85 1019.3
20260507030748 51 213 0.0 0.0 0.00 0.00 0.00 85 1019.3
20260507030250 50 204 0.0 0.0 0.00 0.00 0.00 86 1019.3
20260507025748 50 234 1.0 1.0 0.00 0.00 0.00 86 1019.3
20260507025247 50 225 1.0 1.0 0.00 0.00 0.00 86 1019.3
20260507024748 51 171 1.0 1.0 0.00 0.00 0.00 86 1019.3
20260507024248 51 96 0.0 0.0 0.00 0.00 0.00 86 1019.0
20260507023748 51 186 0.0 0.0 0.00 0.00 0.00 86 1019.0
20260507023248 51 96 0.0 0.0 0.00 0.00 0.00 86 1019.0
20260507022747 51 240 0.0 0.0 0.00 0.00 0.00 86 1019.3
20260507022248 51 216 0.0 0.0 0.00 0.00 0.00 85 1019.0
20260507021748 51 156 0.0 0.0 0.00 0.00 0.00 85 1019.0
20260507021252 51 259 0.0 0.0 0.00 0.00 0.00 85 1019.0
20260507020748 51 36 0.0 0.0 0.00 0.00 0.00 83 1019.0
20260507020247 51 90 0.0 0.0 0.00 0.00 0.00 84 1019.0
20260507015748 51 60 1.0 1.0 0.00 0.00 0.00 84 1019.0
20260507015248 51 72 0.0 0.0 0.00 0.00 0.00 84 1018.6
20260507014747 51 187 0.0 0.0 0.00 0.00 0.00 84 1019.0
20260507014248 52 216 0.0 0.0 0.00 0.00 0.00 84 1019.0
20260507013748 52 225 0.0 0.0 0.00 0.00 0.00 82 1018.6
20260507013247 52 203 3.0 3.0 0.00 0.00 0.00 82 1019.0
20260507012748 52 204 5.0 5.0 0.00 0.00 0.00 81 1018.6
20260507012247 53 248 1.0 1.0 0.00 0.00 0.00 79 1019.0
20260507011748 53 234 2.0 2.0 0.00 0.00 0.00 80 1018.6
20260507011248 53 174 0.0 0.0 0.00 0.00 0.00 81 1018.6
20260507010747 53 288 0.0 0.0 0.00 0.00 0.00 82 1018.6
20260507010247 53 177 0.0 0.0 0.00 0.00 0.00 82 1018.3
20260507005748 53 355 0.0 0.0 0.00 0.00 0.00 81 1018.6
20260507005247 53 180 0.0 0.0 0.00 0.00 0.00 81 1018.6
20260507004747 53 192 0.0 0.0 0.00 0.00 0.00 80 1018.6
20260507004247 53 192 0.0 0.0 0.00 0.00 0.00 80 1018.6
20260507003748 53 6 0.0 0.0 0.00 0.00 0.00 80 1018.6
20260507003247 54 159 1.0 1.0 0.00 0.00 0.00 78 1018.3
20260507002747 54 198 1.0 1.0 0.00 0.00 0.00 77 1018.3
20260507002248 54 240 0.0 0.0 0.00 0.00 0.00 77 1018.3
20260507001747 54 204 0.0 0.0 0.00 0.00 0.00 76 1018.3
20260507001248 54 222 1.0 1.0 0.00 0.00 0.00 76 1018.6
20260507000747 54 130 0.0 0.0 0.00 0.00 0.00 76 1018.3
20260507000247 55 188 2.0 2.0 0.00 0.00 0.00 75 1018.3
20260506235747 55 220 2.0 2.0 0.00 0.00 0.00 74 1018.3
20260506235247 55 150 2.0 2.0 0.00 0.00 0.00 74 1018.6
20260506234748 56 192 3.0 3.0 0.00 0.00 0.00 73 1018.3
20260506234248 57 120 0.0 0.0 0.00 0.00 0.00 73 1018.6
20260506233748 57 176 0.0 0.0 0.00 0.00 0.00 72 1018.3
20260506233247 57 252 0.0 0.0 0.00 0.00 0.00 70 1018.3
20260506232748 57 234 0.0 0.0 0.00 0.00 0.00 71 1018.3
20260506232247 57 342 3.0 3.0 0.00 0.00 0.00 69 1018.6
20260506231748 57 276 5.0 6.0 0.00 0.00 0.00 70 1018.3
20260506231248 57 336 3.0 3.0 0.00 0.00 0.00 68 1018.3
20260506230748 58 348 4.0 4.0 0.00 0.00 0.00 69 1018.3
20260506230248 58 287 4.0 4.0 0.00 0.00 0.00 68 1018.3
20260506225747 58 294 1.0 1.0 0.00 0.00 0.00 68 1018.3
20260506225249 58 6 5.0 5.0 0.00 0.00 0.00 68 1018.3
20260506224748 58 30 1.0 1.0 0.00 0.00 0.00 67 1018.3
20260506224248 58 34 1.0 1.0 0.00 0.00 0.00 67 1018.6
20260506223747 58 1 3.0 3.0 0.00 0.00 0.00 68 1018.3
20260506223248 58 48 1.0 1.0 0.00 0.00 0.00 67 1018.3
20260506222747 58 6 1.0 1.0 0.00 0.00 0.00 68 1018.6
20260506222248 58 354 3.0 3.0 0.00 0.00 0.00 69 1018.3
20260506221748 58 54 1.0 1.0 0.00 0.00 0.00 67 1018.3
20260506221247 58 300 1.0 1.0 0.00 0.00 0.00 67 1018.3
20260506220753 58 6 3.0 3.0 0.00 0.00 0.00 66 1018.3
20260506220248 58 30 3.0 3.0 0.00 0.00 0.00 65 1018.6
20260506215747 58 168 2.0 2.0 0.00 0.00 0.00 68 1018.6
20260506215248 58 1 3.0 4.0 0.00 0.00 0.00 69 1018.6
20260506214748 58 324 3.0 3.0 0.00 0.00 0.00 69 1018.6
20260506214251 58 48 4.0 5.0 0.00 0.00 0.00 68 1018.6
20260506213748 58 30 3.0 3.0 0.00 0.00 0.00 67 1018.6
20260506213247 59 48 2.0 2.0 0.00 0.00 0.00 66 1018.6
20260506212748 59 316 1.0 1.0 0.00 0.00 0.00 65 1018.6
20260506212248 59 348 4.0 5.0 0.00 0.00 0.00 64 1018.6
20260506211748 59 48 2.0 2.0 0.00 0.00 0.00 61 1018.6
20260506211247 59 342 3.0 3.0 0.00 0.00 0.00 64 1018.6
20260506210748 59 324 2.0 2.0 0.00 0.00 0.00 66 1019.0
20260506210248 58 1 4.0 4.0 0.00 0.00 0.00 64 1018.6
20260506205747 58 6 3.0 4.0 0.00 0.00 0.00 68 1018.6
20260506205247 58 187 4.0 5.0 0.00 0.00 0.00 68 1018.6
20260506204747 58 6 2.0 2.0 0.00 0.00 0.00 68 1018.3
20260506204249 58 84 2.0 2.0 0.00 0.00 0.00 68 1018.6
20260506203748 59 342 2.0 2.0 0.00 0.00 0.00 65 1018.6
20260506203247 59 350 3.0 3.0 0.00 0.00 0.00 65 1018.3
20260506202747 60 348 3.0 3.0 0.00 0.00 0.00 63 1018.3
20260506202247 59 36 4.0 5.0 0.00 0.00 0.00 63 1018.3
20260506201748 59 311 2.0 2.0 0.00 0.00 0.00 65 1018.6
20260506201248 59 342 5.0 5.0 0.00 0.00 0.00 65 1018.3
20260506200747 60 300 3.0 3.0 0.00 0.00 0.00 64 1018.3
20260506200248 61 348 0.0 0.0 0.00 0.00 0.00 59 1018.3
20260506195747 61 294 2.0 2.0 0.00 0.00 0.00 57 1018.6
20260506195247 61 336 0.0 0.0 0.00 0.00 0.00 60 1018.3
20260506194748 61 260 0.0 0.0 0.00 0.00 0.00 59 1018.3
20260506194248 62 318 5.0 6.0 0.00 0.00 0.00 58 1018.3
20260506193749 61 339 9.0 9.0 0.00 0.00 0.00 58 1018.3
20260506193249 61 183 6.0 7.0 0.00 0.00 0.00 60 1018.3
20260506192748 61 310 5.0 5.0 0.00 0.00 0.00 59 1018.3
20260506192247 61 0 5.0 7.0 0.00 0.00 0.00 61 1018.3
20260506191748 61 344 7.0 8.0 0.00 0.00 0.00 61 1018.3
20260506191247 62 351 5.0 5.0 0.00 0.00 0.00 58 1018.3
20260506190747 62 342 5.0 5.0 0.00 0.00 0.00 58 1018.3
20260506190247 62 354 6.0 6.0 0.00 0.00 0.00 57 1018.3
20260506185747 62 348 4.0 4.0 0.00 0.00 0.00 56 1018.3
20260506185248 62 336 5.0 5.0 0.00 0.00 0.00 60 1018.3
20260506184748 62 288 1.0 1.0 0.00 0.00 0.00 60 1018.3
20260506184248 62 294 2.0 2.0 0.00 0.00 0.00 57 1018.3
20260506183747 62 276 5.0 5.0 0.00 0.00 0.00 56 1018.3
20260506183248 61 208 2.0 2.0 0.00 0.00 0.00 63 1018.3
20260506182747 60 120 1.0 1.0 0.00 0.00 0.00 61 1018.3
20260506182247 60 60 0.0 0.0 0.00 0.00 0.00 63 1017.9
20260506181747 60 1 3.0 3.0 0.00 0.00 0.00 65 1018.3
20260506181249 61 113 2.0 2.0 0.00 0.00 0.00 64 1018.3
20260506180748 61 42 2.0 2.0 0.00 0.00 0.00 62 1017.9
20260506180249 61 0 0.0 0.0 0.00 0.00 0.00 61 1017.9
20260506175747 62 276 2.0 2.0 0.00 0.00 0.00 62 1017.9
20260506175247 61 350 1.0 1.0 0.00 0.00 0.00 62 1017.9
20260506174749 61 66 2.0 2.0 0.00 0.00 0.00 62 1017.6
20260506174248 61 36 4.0 5.0 0.00 0.00 0.00 60 1017.6
20260506173747 62 72 3.0 3.0 0.00 0.00 0.00 63 1017.6
20260506173248 62 84 2.0 2.0 0.00 0.00 0.00 61 1017.6
20260506172747 63 276 2.0 2.0 0.00 0.00 0.00 59 1017.6
20260506172248 63 228 4.0 4.0 0.00 0.00 0.00 59 1017.3
20260506171747 63 206 4.0 5.0 0.00 0.00 0.00 59 1017.3
20260506171248 63 354 0.0 0.0 0.00 0.00 0.00 59 1016.9
20260506170747 63 294 9.0 9.0 0.00 0.00 0.00 58 1016.9
20260506170248 63 282 2.0 2.0 0.00 0.00 0.00 58 1016.9
20260506165748 63 242 6.0 7.0 0.00 0.00 0.00 59 1016.9
20260506165248 63 261 7.0 8.0 0.00 0.00 0.00 58 1017.3
20260506164748 64 312 4.0 5.0 0.00 0.00 0.00 58 1016.9
20260506164248 64 312 6.0 6.0 0.00 0.00 0.00 58 1016.9
20260506163747 64 282 8.0 9.0 0.00 0.00 0.00 58 1016.9
20260506163256 64 282 9.0 9.0 0.00 0.00 0.00 57 1016.9
20260506162749 64 312 7.0 8.0 0.00 0.00 0.00 57 1016.9
20260506162248 64 264 5.0 5.0 0.00 0.00 0.00 57 1016.9
20260506161748 64 282 3.0 3.0 0.00 0.00 0.00 56 1016.9
20260506161247 65 318 7.0 7.0 0.00 0.00 0.00 56 1016.9
20260506160750 65 288 3.0 3.0 0.00 0.00 0.00 56 1016.9
20260506160247 65 271 18.0 19.0 0.00 0.00 0.00 55 1016.9
20260506155748 65 260 12.0 14.0 0.00 0.00 0.00 54 1016.9
20260506155248 65 265 8.0 8.0 0.00 0.00 0.00 55 1016.6
20260506154747 66 277 7.0 7.0 0.00 0.00 0.00 54 1016.9
20260506154248 66 287 9.0 9.0 0.00 0.00 0.00 53 1016.6
20260506153748 66 248 11.0 11.0 0.00 0.00 0.00 53 1016.6
20260506153248 66 310 13.0 15.0 0.00 0.00 0.00 52 1016.3
20260506152751 67 270 8.0 8.0 0.00 0.00 0.00 53 1016.6
20260506152248 67 304 9.0 9.0 0.00 0.00 0.00 52 1016.6
20260506151748 67 332 7.0 8.0 0.00 0.00 0.00 51 1016.3
20260506151249 67 282 18.0 20.0 0.00 0.00 0.00 51 1016.3
20260506150748 67 264 12.0 13.0 0.00 0.00 0.00 51 1016.6
20260506150247 67 266 6.0 7.0 0.00 0.00 0.00 50 1016.6
20260506145748 67 303 11.0 14.0 0.00 0.00 0.00 50 1016.3
20260506145247 68 282 9.0 11.0 0.00 0.00 0.00 49 1016.6
20260506144747 68 252 12.0 13.0 0.00 0.00 0.00 50 1016.6
20260506144248 68 306 4.0 5.0 0.00 0.00 0.00 50 1016.3
20260506143747 68 356 13.0 15.0 0.00 0.00 0.00 49 1016.3
20260506143248 68 287 9.0 11.0 0.00 0.00 0.00 49 1016.6
20260506142749 68 246 9.0 10.0 0.00 0.00 0.00 49 1016.6
20260506142249 68 282 15.0 18.0 0.00 0.00 0.00 48 1016.6
20260506141749 68 258 9.0 11.0 0.00 0.00 0.00 48 1016.3
20260506141249 68 306 5.0 7.0 0.00 0.00 0.00 49 1016.6
20260506140748 68 264 19.0 20.0 0.00 0.00 0.00 48 1016.6
20260506140248 69 299 9.0 11.0 0.00 0.00 0.00 48 1016.3
20260506135749 69 246 15.0 16.0 0.00 0.00 0.00 47 1016.3
20260506135248 69 348 10.0 11.0 0.00 0.00 0.00 48 1016.3
20260506134748 69 270 5.0 5.0 0.00 0.00 0.00 48 1016.3
20260506134248 69 310 8.0 9.0 0.00 0.00 0.00 48 1016.3
20260506133749 69 223 8.0 8.0 0.00 0.00 0.00 48 1016.3
20260506133248 69 322 10.0 12.0 0.00 0.00 0.00 48 1016.6
20260506132748 69 226 11.0 15.0 0.00 0.00 0.00 48 1016.3
20260506132248 69 282 11.0 12.0 0.00 0.00 0.00 47 1016.6
20260506131748 69 287 8.0 8.0 0.00 0.00 0.00 48 1016.3
20260506131247 69 229 8.0 9.0 0.00 0.00 0.00 48 1016.3
20260506130747 69 205 8.0 9.0 0.00 0.00 0.00 48 1016.3
20260506130248 69 258 10.0 11.0 0.00 0.00 0.00 49 1016.3
20260506125748 69 227 6.0 7.0 0.00 0.00 0.00 48 1016.6
20260506125247 69 246 10.0 11.0 0.00 0.00 0.00 49 1016.3
20260506124748 69 210 8.0 8.0 0.00 0.00 0.00 50 1016.3
20260506124248 69 248 15.0 16.0 0.00 0.00 0.00 49 1016.6
20260506123748 69 322 10.0 11.0 0.00 0.00 0.00 50 1016.3
20260506123248 69 306 9.0 11.0 0.00 0.00 0.00 49 1016.6
20260506122748 69 230 19.0 20.0 0.00 0.00 0.00 49 1016.3
20260506122249 69 258 4.0 5.0 0.00 0.00 0.00 50 1016.6
20260506121747 69 276 9.0 9.0 0.00 0.00 0.00 49 1016.6
20260506121247 69 277 6.0 7.0 0.00 0.00 0.00 49 1016.6
20260506120748 69 282 8.0 8.0 0.00 0.00 0.00 50 1016.6
20260506120248 69 287 11.0 11.0 0.00 0.00 0.00 50 1016.6
20260506115747 69 306 11.0 13.0 0.00 0.00 0.00 48 1016.6
20260506115247 70 304 4.0 5.0 0.00 0.00 0.00 48 1016.6
20260506114747 69 288 9.0 10.0 0.00 0.00 0.00 48 1016.9
20260506114248 69 210 11.0 15.0 0.00 0.00 0.00 48 1016.9
20260506113749 69 282 13.0 15.0 0.00 0.00 0.00 49 1016.9
20260506113247 69 300 10.0 11.0 0.00 0.00 0.00 48 1016.9
20260506112747 69 300 6.0 7.0 0.00 0.00 0.00 47 1016.9
20260506112248 69 234 10.0 11.0 0.00 0.00 0.00 49 1017.3
20260506111747 69 300 5.0 6.0 0.00 0.00 0.00 50 1016.9
20260506111247 68 282 7.0 8.0 0.00 0.00 0.00 50 1016.9
20260506110747 69 272 15.0 17.0 0.00 0.00 0.00 49 1017.3
20260506110247 68 282 10.0 11.0 0.00 0.00 0.00 51 1017.3
20260506105747 69 233 11.0 13.0 0.00 0.00 0.00 51 1017.3
20260506105249 69 255 8.0 8.0 0.00 0.00 0.00 52 1017.3
20260506104748 68 271 10.0 11.0 0.00 0.00 0.00 51 1017.3
20260506104249 68 312 8.0 8.0 0.00 0.00 0.00 51 1017.3
20260506103748 69 207 5.0 7.0 0.00 0.00 0.00 51 1016.9
20260506103247 69 258 10.0 11.0 0.00 0.00 0.00 52 1017.3
20260506102748 69 248 9.0 11.0 0.00 0.00 0.00 51 1017.3
20260506102250 69 247 4.0 4.0 0.00 0.00 0.00 49 1017.3
20260506101749 69 42 1.0 1.0 0.00 0.00 0.00 49 1017.3
20260506101247 68 277 8.0 8.0 0.00 0.00 0.00 50 1017.3
20260506100747 69 287 5.0 6.0 0.00 0.00 0.00 49 1017.3
20260506100248 68 273 10.0 11.0 0.00 0.00 0.00 49 1016.9
20260506095748 68 271 9.0 9.0 0.00 0.00 0.00 51 1017.3
20260506095248 68 309 7.0 7.0 0.00 0.00 0.00 51 1017.3
20260506094748 67 312 7.0 7.0 0.00 0.00 0.00 50 1017.3
20260506094247 67 234 14.0 15.0 0.00 0.00 0.00 51 1017.6
20260506093747 68 204 5.0 5.0 0.00 0.00 0.00 52 1017.3
20260506093247 67 286 11.0 14.0 0.00 0.00 0.00 51 1017.3
20260506092749 67 233 7.0 8.0 0.00 0.00 0.00 52 1017.3
20260506092247 68 297 9.0 11.0 0.00 0.00 0.00 52 1017.3
20260506091748 67 292 9.0 11.0 0.00 0.00 0.00 52 1017.3
20260506091251 67 288 8.0 8.0 0.00 0.00 0.00 53 1017.3
20260506090748 67 258 7.0 7.0 0.00 0.00 0.00 51 1017.3
20260506090252 66 261 5.0 7.0 0.00 0.00 0.00 51 1017.6
20260506085748 66 228 7.0 8.0 0.00 0.00 0.00 54 1017.6
20260506085247 66 294 9.0 11.0 0.00 0.00 0.00 54 1017.6
20260506084749 66 286 8.0 8.0 0.00 0.00 0.00 52 1017.3
20260506084247 66 261 13.0 15.0 0.00 0.00 0.00 53 1017.6
20260506083748 66 243 9.0 9.0 0.00 0.00 0.00 53 1017.6
20260506083248 66 204 11.0 12.0 0.00 0.00 0.00 53 1017.6
20260506082747 66 243 6.0 7.0 0.00 0.00 0.00 53 1017.3
20260506082247 66 258 10.0 11.0 0.00 0.00 0.00 52 1017.6
20260506081747 67 270 9.0 11.0 0.00 0.00 0.00 50 1017.6
20260506081247 67 294 8.0 8.0 0.00 0.00 0.00 50 1017.6
20260506080747 67 222 9.0 9.0 0.00 0.00 0.00 49 1017.3
20260506080248 66 310 5.0 5.0 0.00 0.00 0.00 49 1017.6
20260506073248 66 260 6.0 7.0 0.00 0.00 0.00 53 1017.3
20260506072748 66 288 4.0 5.0 0.00 0.00 0.00 52 1017.3
20260506072247 66 279 8.0 9.0 0.00 0.00 0.00 53 1017.3
20260506071747 65 282 5.0 5.0 0.00 0.00 0.00 51 1017.3